Wetbulb
55.65 55.65 55.63 55.40 55.17 55.24 55.10 55.24 55.54 55.49 55.89 56.22 56.23 56.65 57.01 57.06 56.52 52.75 47.13 50.50 53.74 58.68 61.20 54.59 52.57 51.86 49.55 46.62 47.04 43.76 36.03 31.16 33.47 34.16 36.13 40.57 39.54 41.54 43.21 42.37 42.75 44.60 43.62 46.34 51.71
54.47 54.57 54.74 54.71 54.56 54.67 54.56 54.75 54.90 54.87 55.23 55.32 55.77 56.04 55.83 56.28 51.25 47.47 53.30 57.53 59.17 62.02 53.85 51.26 48.51 49.43 44.88 44.66 45.14 40.94 34.04 35.19 37.94 37.55 37.70 40.80 41.81 42.46 41.96 41.68 42.97 44.11 46.03 48.10 52.68
53.94 53.81 53.71 53.73 53.76 53.77 53.91 54.06 54.20 54.45 54.66 54.89 55.37 55.47 55.20 54.40 43.07 40.64 55.46 58.54 60.19 62.35 53.10 52.02 50.64 48.31 42.67 42.98 43.27 40.83 34.94 36.79 39.24 41.50 42.36 42.42 41.19 43.35 41.83 40.45 43.10 43.59 45.45 47.46 47.57
53.34 53.00 52.84 52.60 52.71 52.70 52.94 53.27 53.59 53.81 54.05 54.42 54.49 54.33 54.23 50.25 32.70 47.97 59.40 59.37 61.40 54.00 50.88 49.78 48.11 44.37 40.78 40.09 42.83 36.85 41.46 40.57 42.50 43.82 43.61 41.46 42.87 41.03 42.13 44.09 45.52 46.95 47.05 46.89 46.91
52.56 52.23 51.87 51.73 51.76 51.87 52.47 53.03 53.57 53.94 53.87 53.75 53.66 53.26 50.36 42.54 40.13 46.54 61.31 61.77 59.11 52.02 48.70 47.67 45.41 43.53 40.12 40.47 41.43 38.61 39.72 41.96 43.50 43.92 43.24 43.50 42.10 41.75 41.33 45.65 46.07 46.81 46.82 46.19 46.50
51.91 51.48 51.28 51.28 51.22 51.45 52.21 52.88 53.35 53.59 53.64 53.48 53.06 52.34 45.83 35.42 47.29 51.96 52.17 55.63 55.76 52.99 48.31 48.23 46.24 46.15 41.80 40.41 39.43 40.24 41.38 40.93 41.37 42.38 42.47 41.21 40.81 41.54 42.67 45.83 44.84 45.62 45.28 45.74 46.02
51.60 51.14 50.79 50.88 50.96 51.30 51.99 52.66 52.96 52.95 53.18 53.39 53.08 49.81 44.17 39.63 48.67 49.53 55.51 55.50 54.56 53.53 47.62 49.21 48.88 46.12 43.88 40.02 43.29 41.23 37.20 38.39 38.79 40.32 40.57 41.50 37.52 37.71 44.32 43.96 43.06 43.86 44.34 45.21 45.72
51.36 50.72 50.38 50.39 50.64 50.88 51.51 52.99 53.59 53.71 54.09 53.94 53.43 48.28 38.90 48.95 49.60 48.77 51.78 53.81 53.59 51.93 50.47 51.06 50.16 46.38 43.40 43.34 40.36 36.25 33.69 29.60 35.31 38.27 40.15 39.56 30.97 37.37 41.38 41.14 40.77 42.06 43.13 43.79 45.20
50.61 50.15 49.80 49.80 50.20 50.50 51.74 53.17 54.15 54.08 54.16 52.84 49.19 44.63 37.43 49.75 46.42 48.70 51.14 52.33 51.38 51.48 50.87 52.71 49.01 44.15 42.76 37.47 32.51 31.64 26.63 28.29 32.49 38.94 37.96 36.66 29.90 38.32 40.78 40.46 40.13 41.14 41.61 42.24 43.30
49.82 49.21 48.99 49.04 49.55 50.47 51.92 52.65 53.27 52.31 53.85 51.62 49.66 40.82 41.51 38.03 44.93 45.12 50.15 51.95 48.58 47.63 46.00 45.35 43.02 38.87 39.84 38.07 26.13 27.66 27.40 26.38 26.61 33.02 35.06 33.99 33.89 37.96 40.58 39.27 39.41 40.82 42.25 41.20 41.65
48.87 48.42 48.37 48.39 49.25 50.44 47.57 41.46 37.37 35.81 40.54 39.21 39.46 37.88 40.95 45.47 46.51 43.25 50.32 49.85 46.52 43.76 38.84 42.13 38.09 33.12 35.84 37.70 33.39 30.35 27.47 25.87 29.24 34.83 32.37 30.70 31.39 33.50 37.48 38.45 38.98 38.43 40.73 41.14 40.51
48.42 48.16 48.06 48.03 48.60 49.52 42.31 37.30 35.44 38.43 33.78 38.91 38.45 39.08 43.00 44.15 39.21 42.26 50.12 44.35 42.29 37.54 37.97 37.79 33.94 36.71 37.65 37.82 36.14 34.57 32.18 29.04 31.35 34.88 32.74 30.91 32.42 35.68 37.08 38.93 40.17 39.30 39.40 39.54 38.38
47.85 47.57 47.51 47.28 47.92 41.31 38.95 35.07 39.51 41.16 33.46 34.00 37.80 37.57 38.19 40.30 37.50 39.11 46.31 43.16 38.89 36.12 37.75 33.07 33.08 39.35 37.02 34.55 34.85 34.84 32.81 32.22 29.53 32.75 33.05 29.82 29.70 29.32 33.82 35.63 37.69 39.73 40.47 38.58 38.50
47.44 47.36 47.26 46.85 37.43 36.96 36.65 38.81 37.23 41.48 25.86 26.29 32.65 37.63 39.38 39.13 33.55 42.85 44.93 42.30 37.34 36.12 36.68 35.73 38.06 35.67 35.20 33.87 34.42 30.52 35.29 34.35 32.24 29.78 23.79 27.67 20.28 26.89 31.51 30.98 33.14 33.99 33.56 34.70 35.54
47.21 47.53 47.15 46.41 37.79 31.62 35.26 36.28 36.91 37.48 2.26 29.94 32.87 39.67 35.39 33.92 35.48 36.83 42.92 41.21 34.45 34.90 37.22 31.53 34.43 33.52 32.26 33.28 36.21 32.50 35.41 33.74 32.42 30.61 29.00 26.73 22.13 26.66 27.37 28.09 30.89 34.60 35.52 36.67 38.03
47.22 46.93 45.85 39.15 36.79 35.77 35.08 36.41 41.25 18.42 2.35 22.13 29.16 27.30 28.20 30.62 31.88 33.36 37.56 39.29 40.95 36.36 35.96 33.20 36.23 36.04 34.67 36.57 36.96 36.82 33.26 31.99 29.72 30.87 23.68 24.38 24.74 22.55 22.49 25.49 29.56 31.83 32.35 33.65 35.71
46.88 46.04 40.50 38.81 32.62 36.83 34.69 38.00 25.06 9.01 23.60 19.21 21.00 25.21 25.59 23.71 26.89 27.59 27.51 23.83 23.99 23.65 28.89 33.30 32.18 34.73 37.30 32.62 37.24 36.37 32.04 22.79 20.84 20.88 18.86 18.40 24.59 20.37 25.33 26.82 27.39 27.60 30.01 32.11 34.50
46.05 42.59 38.14 37.47 35.28 33.29 34.60 29.78 15.42 19.05 17.62 24.19 23.51 24.93 19.67 22.23 23.83 24.81 24.87 20.15 23.71 23.18 22.17 24.52 23.54 29.81 34.51 32.39 30.81 32.27 31.27 19.41 11.81 14.16 17.85 24.03 20.20 20.96 27.18 27.90 28.49 29.11 29.75 31.91 33.45
43.54 33.24 33.56 36.69 35.53 34.63 29.41 17.17 14.27 18.40 22.20 20.83 22.53 18.67 17.12 20.84 22.59 23.09 20.69 19.41 22.66 23.92 16.98 15.43 22.30 28.73 28.55 28.67 29.98 29.86 29.52 30.23 20.33 16.81 15.78 20.52 19.09 23.84 26.02 25.25 26.52 27.18 28.48 28.88 31.08
31.27 28.14 31.17 36.81 33.12 30.65 23.36 18.45 19.15 24.91 24.74 23.58 15.66 17.90 12.85 16.26 16.42 18.98 19.08 22.42 22.01 24.75 25.59 20.26 14.98 23.54 27.74 29.08 28.98 27.56 28.81 25.87 27.22 12.87 13.12 16.49 16.59 17.27 19.99 21.84 24.29 24.98 26.21 28.21 30.44
29.17 23.95 33.30 35.05 31.11 24.87 14.79 19.18 22.57 26.62 25.64 20.95 17.86 16.38 15.35 14.45 15.89 17.36 17.64 21.25 23.79 23.22 25.13 21.73 19.04 18.09 23.31 20.26 18.80 21.56 18.66 21.13 24.21 20.91 15.04 11.87 15.54 22.39 21.26 22.52 22.62 24.75 27.24 28.06 29.28
27.29 19.69 34.45 31.91 21.60 19.14 17.49 20.77 26.82 23.71 24.47 22.59 21.37 19.79 15.81 15.73 14.49 17.36 16.95 20.11 25.40 24.03 18.52 23.17 19.03 13.73 17.81 23.90 25.34 21.78 19.03 18.26 15.36 15.09 16.86 14.53 16.08 24.07 23.61 24.33 25.55 25.55 26.58 27.67 29.73
24.37 25.59 31.11 29.60 16.24 17.23 21.52 21.68 23.78 22.22 22.31 21.64 20.19 21.41 19.49 15.23 11.94 15.82 17.96 24.04 24.39 22.60 19.53 22.58 15.98 10.31 14.99 19.51 21.15 18.02 19.79 19.70 16.65 16.41 10.64 13.26 15.36 25.67 22.76 22.16 23.67 22.89 23.91 25.03 27.45
23.48 17.99 23.55 24.00 23.07 15.49 15.31 18.39 18.65 24.74 23.05 23.25 21.35 21.56 18.60 15.57 17.25 13.29 16.75 22.33 24.21 22.77 28.33 23.91 18.26 13.60 8.38 12.57 16.98 14.57 14.57 18.75 16.79 11.00 8.36 13.22 15.09 16.00 17.39 17.13 19.53 20.71 22.34 23.62 25.16
23.67 21.80 23.23 18.03 20.14 17.50 15.77 18.89 17.06 16.92 22.36 22.93 20.33 19.94 18.74 13.66 15.37 14.01 17.72 18.83 21.83 23.86 20.01 17.58 7.90 14.56 15.89 17.29 13.77 11.18 11.41 13.98 13.62 14.34 11.53 12.14 13.39 11.36 13.80 15.98 18.81 20.82 21.70 22.60 23.68
22.27 20.94 21.93 17.94 19.63 16.08 16.73 16.09 17.12 18.23 19.83 18.13 18.42 19.99 18.72 17.00 17.29 15.27 18.49 17.61 17.35 18.32 16.25 17.28 6.83 13.72 10.62 16.07 14.03 6.63 9.09 11.54 12.29 11.22 12.01 11.93 13.21 14.43 16.70 18.29 18.90 19.23 19.99 20.57 21.94
32.21 28.13 19.35 19.67 17.63 12.57 18.52 17.27 17.57 19.84 20.70 22.46 21.43 18.71 17.55 19.27 20.93 22.28 20.49 17.65 15.33 12.89 13.44 12.12 7.63 9.07 4.09 12.02 11.07 1.64 5.52 8.57 9.14 11.03 11.44 5.71 9.03 13.89 13.33 15.15 15.81 16.69 18.57 19.85 21.75
MSLP
1018.78 1018.39 1018.02 1017.68 1017.31 1016.92 1016.57 1016.27 1015.95 1015.62 1015.27 1014.94 1014.62 1014.32 1014.06 1013.74 1013.45 1013.41 1012.62 1010.45 1010.49 1010.42 1010.87 1011.59 1012.07 1012.36 1012.78 1013.38 1013.70 1014.35 1015.42 1015.44 1014.36 1013.80 1012.21 1011.51 1011.42 1011.23 1010.94 1010.88 1010.84 1010.68 1010.78 1010.52 1010.64
1018.70 1018.34 1017.94 1017.62 1017.21 1016.82 1016.43 1016.06 1015.72 1015.40 1015.08 1014.74 1014.44 1014.16 1013.91 1013.55 1013.33 1012.15 1009.13 1009.23 1009.58 1009.89 1010.75 1011.46 1012.26 1012.67 1013.31 1013.61 1013.99 1014.46 1015.15 1013.83 1012.60 1012.26 1011.74 1011.35 1011.24 1011.23 1011.28 1011.23 1011.05 1010.80 1010.71 1010.62 1010.93
1018.70 1018.29 1017.88 1017.53 1017.14 1016.71 1016.26 1015.83 1015.42 1015.08 1014.80 1014.53 1014.24 1014.02 1013.86 1013.59 1012.96 1009.39 1007.82 1008.37 1009.01 1009.52 1010.44 1011.16 1012.01 1012.62 1013.51 1013.87 1014.05 1014.19 1013.98 1012.94 1012.11 1011.71 1011.45 1011.46 1011.48 1011.31 1011.37 1011.50 1010.61 1010.38 1010.69 1010.93 1011.12
1018.74 1018.28 1017.91 1017.47 1016.99 1016.45 1015.94 1015.47 1015.02 1014.64 1014.36 1014.16 1014.03 1013.89 1013.75 1013.72 1011.77 1008.19 1007.98 1008.25 1008.67 1009.55 1010.45 1011.26 1012.20 1012.92 1013.54 1013.84 1013.69 1014.07 1013.04 1012.89 1012.17 1011.78 1011.75 1011.79 1011.59 1011.44 1011.27 1010.13 1010.02 1010.08 1010.27 1010.65 1010.92
1018.78 1018.37 1017.91 1017.37 1016.75 1016.09 1015.48 1014.95 1014.46 1014.06 1013.82 1013.74 1013.71 1013.77 1013.80 1013.31 1010.07 1008.02 1008.09 1008.20 1008.81 1009.60 1010.01 1010.77 1011.75 1012.55 1013.12 1013.37 1013.55 1013.60 1012.82 1012.54 1012.30 1012.17 1012.10 1012.00 1011.81 1011.77 1011.08 1010.03 1010.25 1010.20 1010.36 1010.45 1010.65
1018.80 1018.33 1017.77 1017.12 1016.44 1015.71 1015.02 1014.41 1013.89 1013.50 1013.25 1013.15 1013.28 1013.49 1013.75 1012.26 1008.05 1008.04 1008.15 1008.33 1008.57 1009.41 1010.02 1010.39 1010.87 1011.48 1012.27 1012.77 1013.08 1012.61 1012.68 1012.49 1012.24 1012.22 1012.08 1011.96 1011.65 1011.77 1010.07 1009.67 1010.12 1010.00 1009.85 1009.94 1010.21
1018.68 1018.14 1017.54 1016.86 1016.13 1015.31 1014.54 1013.87 1013.30 1012.91 1012.70 1012.63 1012.74 1012.99 1012.63 1009.27 1007.96 1008.07 1008.42 1008.11 1008.19 1008.67 1009.68 1010.00 1010.43 1011.05 1011.67 1012.43 1012.31 1012.54 1012.90 1012.66 1012.21 1011.95 1011.97 1011.92 1011.52 1010.46 1009.29 1009.68 1009.72 1009.40 1009.40 1009.59 1009.51
1018.55 1017.98 1017.31 1016.52 1015.67 1014.78 1013.94 1013.07 1012.44 1012.14 1011.98 1011.91 1012.13 1012.47 1010.87 1008.47 1008.13 1008.22 1008.18 1008.55 1008.67 1008.93 1009.19 1009.69 1010.20 1010.98 1011.56 1012.13 1012.54 1012.86 1013.15 1012.95 1011.56 1011.52 1011.49 1011.52 1010.12 1009.33 1009.16 1009.55 1009.45 1009.20 1009.15 1009.20 1009.04
1018.48 1017.87 1017.19 1016.31 1015.37 1014.31 1013.26 1012.28 1011.50 1011.28 1011.22 1011.31 1012.02 1012.27 1010.00 1008.17 1008.01 1007.70 1007.87 1008.06 1008.74 1009.18 1009.41 1009.84 1010.35 1010.97 1011.64 1012.29 1013.25 1013.24 1013.06 1012.69 1011.88 1011.14 1011.22 1011.31 1010.27 1009.34 1009.15 1009.40 1009.45 1009.18 1008.84 1008.77 1008.52
1018.39 1017.72 1016.95 1016.04 1015.07 1013.99 1012.77 1011.74 1011.35 1011.22 1011.07 1011.26 1011.31 1012.35 1009.50 1007.95 1007.35 1007.26 1007.38 1007.97 1008.73 1009.50 1010.00 1010.28 1010.72 1010.99 1011.24 1011.92 1011.60 1012.38 1012.84 1012.55 1012.02 1011.48 1011.33 1011.26 1010.33 1009.79 1009.07 1009.16 1009.27 1009.04 1008.45 1008.09 1007.92
1018.37 1017.63 1016.76 1015.83 1014.89 1013.89 1012.83 1012.18 1012.30 1012.22 1011.88 1011.22 1010.84 1009.85 1008.93 1008.16 1007.30 1007.20 1007.30 1008.05 1008.68 1009.37 1009.61 1009.79 1010.33 1008.75 1009.52 1010.13 1011.00 1011.47 1012.19 1012.33 1012.12 1011.57 1011.62 1011.18 1010.45 1010.28 1009.98 1009.40 1008.91 1008.55 1008.14 1007.57 1007.25
1018.19 1017.41 1016.61 1015.70 1014.78 1013.93 1013.62 1014.12 1015.11 1015.19 1012.55 1011.02 1009.97 1009.62 1008.95 1009.08 1008.82 1007.51 1007.46 1007.79 1008.48 1008.88 1009.51 1010.11 1008.07 1009.13 1009.66 1010.24 1010.85 1011.43 1012.06 1012.39 1012.41 1011.91 1011.74 1011.41 1009.42 1009.77 1009.55 1008.43 1007.46 1007.28 1007.03 1006.99 1007.00
1018.18 1017.33 1016.48 1015.54 1014.65 1014.46 1014.54 1014.87 1014.89 1014.75 1013.68 1010.41 1009.66 1009.19 1008.52 1008.59 1008.27 1007.98 1007.63 1007.38 1007.91 1008.46 1008.72 1008.61 1008.09 1008.43 1009.47 1009.98 1010.44 1010.80 1011.37 1012.13 1012.60 1012.33 1011.95 1011.74 1008.99 1008.89 1008.19 1007.74 1007.04 1006.60 1006.51 1006.83 1006.75
1018.04 1017.04 1016.04 1015.26 1014.96 1015.25 1014.88 1014.79 1014.60 1014.55 1014.15 1010.56 1009.21 1008.35 1008.20 1008.23 1007.91 1006.82 1006.81 1007.15 1007.78 1007.90 1008.82 1008.75 1008.20 1008.43 1009.04 1009.39 1009.93 1010.24 1010.79 1011.82 1012.54 1013.10 1012.84 1012.09 1010.54 1009.90 1009.07 1008.60 1008.03 1007.39 1006.94 1006.68 1006.43
1017.83 1016.79 1015.91 1015.22 1015.85 1015.58 1015.10 1014.55 1014.31 1014.44 1014.02 1010.66 1009.76 1009.09 1009.21 1009.23 1008.57 1007.26 1006.93 1007.29 1007.19 1007.76 1008.32 1007.22 1007.60 1008.47 1008.75 1008.61 1009.59 1009.72 1010.42 1011.28 1012.00 1012.83 1013.15 1012.99 1013.26 1010.91 1010.16 1010.03 1009.69 1009.19 1008.51 1007.99 1007.43
1017.72 1016.71 1016.13 1016.02 1015.91 1015.12 1014.95 1014.63 1014.47 1015.16 1013.79 1012.50 1011.95 1011.67 1010.92 1010.58 1010.27 1009.64 1008.32 1007.88 1007.55 1008.03 1007.81 1007.70 1007.48 1007.87 1007.93 1008.20 1008.90 1009.73 1010.65 1011.44 1012.21 1012.97 1013.00 1012.63 1013.49 1012.85 1013.15 1013.29 1011.98 1011.09 1010.21 1009.41 1008.52
1017.60 1016.75 1016.39 1016.14 1016.18 1015.13 1015.05 1014.87 1015.20 1015.59 1014.92 1015.09 1014.47 1013.86 1013.31 1013.21 1012.58 1012.37 1011.81 1011.52 1011.08 1010.07 1008.73 1008.48 1008.25 1007.99 1007.80 1008.46 1009.10 1009.82 1010.72 1011.53 1012.32 1012.69 1012.40 1012.37 1013.46 1014.53 1014.44 1014.04 1013.43 1012.59 1011.60 1010.62 1009.58
1017.45 1017.11 1016.76 1016.20 1015.85 1015.20 1015.14 1015.60 1015.97 1016.89 1016.95 1016.51 1015.83 1015.07 1015.04 1014.84 1014.54 1014.32 1013.56 1013.92 1013.86 1013.02 1011.76 1010.45 1009.90 1009.64 1008.89 1008.70 1009.60 1010.01 1010.06 1010.27 1011.03 1011.84 1012.76 1013.29 1013.77 1014.59 1014.91 1014.63 1013.93 1013.09 1012.36 1011.34 1010.34
1017.70 1017.78 1017.18 1016.07 1015.60 1015.41 1015.77 1016.84 1018.29 1018.23 1017.73 1017.08 1016.23 1016.01 1016.23 1015.90 1015.82 1015.32 1015.87 1016.08 1015.91 1015.25 1014.34 1013.39 1011.93 1011.63 1011.10 1010.75 1010.44 1010.48 1010.01 1009.89 1010.81 1011.99 1012.71 1013.50 1014.75 1015.19 1015.25 1014.79 1013.84 1013.18 1012.63 1012.16 1011.55
1019.04 1018.79 1017.80 1016.66 1015.76 1015.74 1017.10 1018.75 1019.02 1018.53 1017.95 1017.55 1017.39 1017.45 1017.43 1017.19 1016.92 1016.65 1016.95 1017.38 1016.83 1016.42 1016.02 1015.49 1014.21 1013.35 1012.65 1012.08 1011.83 1011.73 1011.79 1011.33 1011.13 1012.22 1013.26 1013.95 1014.90 1015.79 1016.01 1015.73 1014.97 1014.07 1013.68 1013.12 1012.29
1019.74 1019.69 1018.70 1017.19 1016.56 1017.75 1019.50 1019.79 1019.41 1018.94 1018.58 1018.38 1018.36 1018.28 1018.55 1018.49 1018.02 1017.79 1017.94 1017.97 1017.05 1016.37 1016.24 1016.04 1015.57 1014.80 1014.01 1014.52 1014.39 1013.39 1013.44 1013.10 1012.44 1012.21 1012.47 1014.24 1016.04 1016.72 1016.89 1016.69 1016.12 1015.51 1014.98 1014.25 1013.41
1021.09 1020.97 1019.62 1018.46 1019.21 1020.74 1021.18 1021.04 1020.34 1019.80 1019.34 1019.05 1018.93 1019.04 1019.33 1019.13 1018.90 1018.45 1018.36 1017.83 1017.46 1016.88 1016.47 1016.26 1016.71 1016.36 1016.18 1016.33 1016.15 1015.94 1016.17 1015.54 1014.67 1014.58 1014.01 1013.96 1016.63 1017.05 1017.52 1017.42 1017.25 1016.99 1016.22 1015.60 1014.72
1022.67 1022.49 1020.94 1020.43 1022.10 1022.65 1022.35 1021.87 1021.12 1020.74 1020.47 1020.06 1019.92 1019.94 1020.01 1019.91 1019.74 1019.22 1018.82 1018.17 1017.88 1017.47 1017.24 1016.87 1017.58 1017.34 1016.96 1017.31 1017.13 1017.40 1017.58 1017.71 1017.22 1016.74 1016.80 1016.46 1017.71 1018.01 1018.58 1018.63 1018.65 1018.43 1017.70 1016.60 1015.77
1023.46 1023.81 1023.35 1023.25 1024.05 1024.11 1023.78 1023.19 1022.33 1021.48 1021.17 1020.99 1020.82 1020.57 1020.58 1020.41 1020.21 1019.98 1019.51 1018.91 1018.51 1018.11 1017.60 1017.37 1017.85 1018.17 1018.61 1018.94 1019.15 1019.52 1019.77 1019.54 1019.19 1018.93 1019.11 1018.98 1019.69 1020.51 1020.65 1020.37 1019.58 1019.11 1018.67 1017.65 1016.61
1024.75 1025.74 1025.68 1025.55 1025.11 1025.18 1024.76 1024.43 1023.52 1022.75 1022.07 1021.72 1021.37 1021.61 1021.51 1021.21 1020.95 1020.71 1020.26 1019.87 1019.29 1019.13 1018.96 1019.22 1019.70 1019.67 1019.67 1020.28 1020.93 1022.00 1022.26 1021.97 1021.24 1021.67 1021.34 1021.68 1021.85 1023.22 1023.46 1022.76 1021.72 1020.83 1019.83 1018.59 1017.12
1025.50 1026.02 1026.22 1026.50 1026.24 1026.02 1025.73 1025.26 1024.51 1023.67 1023.27 1022.57 1022.43 1022.16 1021.93 1022.02 1022.28 1021.76 1021.45 1021.29 1021.23 1020.72 1020.77 1020.78 1021.24 1021.07 1021.05 1021.05 1021.94 1023.86 1024.86 1023.91 1023.11 1023.49 1023.41 1023.38 1023.66 1024.73 1024.86 1023.70 1022.54 1021.62 1020.63 1019.57 1018.43
1025.52 1025.99 1026.75 1027.48 1027.08 1026.81 1026.63 1026.17 1025.48 1024.76 1023.63 1023.47 1023.21 1022.89 1022.60 1022.99 1022.49 1022.24 1022.34 1022.73 1023.04 1022.79 1022.63 1022.44 1022.67 1022.65 1022.78 1022.66 1023.24 1024.89 1026.74 1025.78 1026.27 1026.47 1026.17 1026.39 1026.99 1026.30 1024.67 1023.87 1023.33 1022.23 1021.52 1020.23 1018.95
Wind_Speed
17 18 17 18 18 18 18 18 18 17 16 16 15 14 15 14 15 4 10 15 11 12 9 8 4 4 3 3 4 3 3 4 6 8 6 5 4 2 0 3 3 5 5 4 5
18 19 19 19 19 19 19 19 18 18 17 16 15 14 13 14 8 12 14 15 14 19 9 11 7 7 3 4 2 4 5 11 8 6 5 5 4 7 4 2 4 4 3 1 6
19 20 21 21 21 21 21 20 19 18 17 16 15 13 12 10 5 10 6 18 18 18 8 5 7 5 4 3 5 6 8 4 4 5 5 5 2 4 7 7 8 10 7 7 6
20 21 22 22 22 22 22 21 20 19 18 16 14 12 10 3 8 2 9 16 19 11 8 8 6 7 6 7 5 3 8 4 3 4 3 3 1 4 8 11 6 11 5 6 10
22 22 23 23 24 24 22 21 20 18 16 14 12 9 4 3 13 4 8 13 11 9 11 9 9 7 7 6 6 5 3 4 7 7 5 2 8 7 7 17 7 8 8 10 9
23 24 25 25 26 25 23 22 21 19 16 13 10 6 4 8 3 4 6 9 8 12 8 9 10 7 5 5 8 4 5 5 4 5 6 5 5 8 11 14 10 12 15 12 11
24 26 27 27 28 26 25 25 23 20 17 14 10 7 10 20 2 7 4 8 8 14 9 6 6 7 7 2 5 1 4 5 7 6 7 6 9 14 18 7 9 12 9 9 12
26 27 28 29 30 28 27 25 22 19 17 14 11 8 11 7 10 7 4 2 5 5 4 7 6 5 5 3 4 2 1 2 1 7 6 11 11 6 5 8 11 10 7 8 10
27 28 29 30 30 29 28 26 21 12 5 4 6 5 10 6 4 8 6 7 7 3 2 5 7 5 3 7 3 2 5 8 7 9 4 8 4 5 2 3 7 8 9 8 10
28 28 29 30 30 28 27 23 8 3 4 5 3 4 6 4 4 3 6 9 5 8 4 5 4 5 9 11 14 10 7 4 5 1 3 5 12 9 10 4 9 12 14 9 9
29 29 30 30 29 26 14 5 7 4 6 7 5 5 5 9 4 2 4 10 6 5 11 9 10 22 22 21 4 7 3 3 3 3 3 7 11 8 9 12 15 12 16 14 12
30 30 30 29 28 15 6 6 2 5 15 15 20 18 19 4 7 2 8 14 10 15 8 6 26 9 7 10 12 13 7 7 5 7 2 6 22 15 10 16 21 18 16 13 6
29 30 30 29 26 4 1 5 3 4 8 6 4 5 6 12 13 8 9 7 9 13 21 19 4 19 11 6 15 18 20 14 6 5 4 4 20 5 6 7 8 11 13 6 10
30 31 30 25 5 5 2 4 5 2 5 8 1 3 3 3 5 11 9 8 7 19 12 15 16 6 11 16 10 19 9 11 9 4 5 1 10 6 7 10 7 9 8 8 9
31 30 25 11 3 2 5 7 6 2 3 5 5 5 16 3 11 6 4 6 10 8 9 12 9 16 8 10 15 8 9 14 8 8 2 4 2 8 5 9 20 16 14 12 10
31 26 17 4 2 5 6 6 1 6 9 12 9 14 12 12 11 12 6 6 2 7 6 12 4 8 11 9 17 8 5 4 3 4 9 10 8 4 5 9 12 15 16 14 14
31 20 7 4 6 10 5 3 3 4 10 12 11 11 6 12 11 12 9 15 7 4 17 8 10 3 5 6 8 8 11 4 4 6 5 3 9 2 5 9 8 11 15 15 13
31 11 9 1 9 5 1 1 2 8 8 7 11 3 7 11 7 14 5 5 13 11 4 7 4 2 4 8 7 11 7 6 9 6 5 2 6 2 4 7 7 8 10 15 19
19 5 8 14 10 2 5 6 5 4 9 11 7 5 7 10 3 10 6 9 8 12 6 7 4 4 11 5 1 7 8 5 6 3 5 5 4 3 6 11 15 16 16 17 17
3 4 10 20 10 5 7 7 2 4 6 6 9 5 6 11 8 8 6 7 5 7 7 6 5 8 5 4 9 4 4 6 4 7 5 3 4 4 11 14 15 17 16 15 16
5 5 13 18 6 9 5 4 3 11 9 7 6 5 6 5 6 3 7 4 11 9 6 5 3 7 5 9 10 5 5 4 4 1 7 6 4 5 5 8 11 12 14 14 15
3 5 10 9 9 3 4 5 8 11 8 6 5 4 5 5 4 5 3 1 9 8 6 5 3 3 6 6 10 15 6 5 4 2 3 3 6 9 13 13 14 15 17 17 17
3 2 6 6 8 6 5 8 5 11 8 7 7 6 5 5 4 4 5 4 12 7 4 4 1 3 4 4 8 7 9 7 1 3 5 0 6 8 15 15 15 17 17 18 18
3 6 5 5 2 2 5 8 11 6 3 7 4 6 6 4 3 5 4 6 8 6 9 5 2 2 2 5 5 6 14 10 5 3 3 5 6 16 19 20 21 20 19 20 18
4 2 3 6 9 7 4 7 13 12 5 7 6 12 10 3 5 5 4 5 5 12 6 5 2 4 5 8 18 17 16 13 8 8 3 10 8 13 17 18 18 18 19 22 23
4 3 4 4 3 5 7 8 11 10 3 6 6 13 7 3 6 6 5 5 5 7 6 6 1 4 3 4 14 17 19 15 16 16 10 11 3 16 17 16 19 21 21 21 21
1 3 5 6 6 4 5 8 12 10 5 7 8 6 7 9 11 3 10 11 10 6 6 3 2 2 3 7 6 10 20 14 13 12 7 9 10 17 21 23 21 21 22 21 21
Wind_Direction
351 347 344 340 335 332 329 326 324 322 320 319 318 319 320 323 313 289 235 218 196 213 135 115 108 138 84 114 111 132 83 229 235 164 234 168 157 186 165 141 211 201 162 238 163
347 344 342 338 334 330 326 323 320 316 314 311 311 313 316 322 302 246 236 213 200 180 131 148 150 129 117 159 164 131 164 217 206 192 207 183 166 170 149 217 255 264 237 274 144
346 344 341 338 335 330 325 321 317 313 309 307 307 311 315 330 307 249 262 198 187 164 131 116 115 119 147 134 199 181 213 218 243 216 161 178 196 193 158 234 205 210 208 205 201
348 346 343 337 332 328 322 317 312 307 304 302 303 306 311 300 270 358 139 169 171 127 121 130 134 147 163 196 191 199 248 196 287 219 155 179 179 232 187 237 197 225 204 198 214
349 346 340 336 332 327 322 315 309 303 298 295 295 299 325 241 247 242 162 167 135 139 161 157 153 143 180 192 162 223 244 206 237 288 279 277 236 227 237 254 243 250 238 228 223
349 345 341 337 333 328 321 315 307 299 292 282 272 263 227 249 209 325 226 174 166 166 174 153 179 171 163 193 179 214 231 264 281 239 237 230 251 160 240 251 221 244 239 233 224
347 345 341 337 334 329 322 315 305 295 285 273 247 216 229 237 108 345 326 197 177 175 169 185 139 156 138 185 209 197 296 300 223 210 239 164 271 230 240 225 230 242 243 233 238
347 344 341 338 334 329 323 314 304 293 281 255 226 212 247 248 250 267 204 142 133 132 118 148 145 112 159 134 28 200 145 261 244 169 239 138 250 268 248 192 237 261 256 239 251
347 344 341 337 335 329 323 317 306 294 263 197 180 196 260 325 219 223 203 177 127 108 109 119 127 165 136 128 359 270 237 214 319 193 124 189 246 254 54 153 279 281 278 253 256
345 343 340 337 336 331 324 317 313 311 168 167 261 220 265 245 220 203 179 157 138 124 118 147 159 195 188 181 217 195 217 207 203 157 150 240 255 286 299 290 262 277 277 267 256
345 342 340 337 336 332 337 4 15 353 3 217 212 243 291 312 312 181 147 162 106 149 184 185 199 211 202 210 203 114 146 163 217 206 7 257 268 259 251 268 266 250 259 261 253
344 341 338 334 332 337 1 64 56 275 291 249 253 255 267 5 321 312 159 177 174 198 135 178 228 200 180 201 217 235 257 249 262 278 167 282 283 282 236 247 245 239 245 251 265
344 338 336 333 327 28 73 121 278 314 272 281 244 255 229 189 225 248 188 161 191 188 197 205 189 193 183 174 205 224 237 245 240 329 266 294 286 297 288 276 285 262 257 256 241
343 336 335 332 18 317 10 314 319 261 301 279 282 326 348 166 249 217 208 168 216 209 182 225 228 166 197 209 177 228 207 230 222 187 243 145 290 333 314 318 315 312 277 250 260
342 340 342 6 267 355 275 325 302 109 356 347 21 5 320 6 320 23 218 233 202 169 175 212 165 196 197 202 194 220 166 189 186 193 219 216 334 271 329 350 338 356 10 7 354
346 344 353 348 324 251 339 315 175 51 255 359 358 357 354 9 10 327 352 26 225 196 224 209 164 163 190 183 176 168 131 114 98 145 239 182 165 308 10 322 342 354 359 358 1
347 344 11 345 301 317 332 299 210 165 345 1 337 336 45 353 10 358 39 43 10 290 223 189 211 203 156 123 150 177 159 189 182 201 219 184 167 79 321 350 349 353 356 355 7
342 350 325 131 320 322 66 224 226 50 8 317 330 317 40 12 16 4 41 41 14 359 317 239 203 357 336 214 170 200 203 172 183 187 148 270 205 96 339 333 348 11 8 7 9
343 347 350 341 340 2 60 53 20 351 311 336 342 12 4 2 41 1 60 13 22 6 8 352 97 341 32 356 142 172 207 171 106 50 91 168 63 240 7 9 12 14 13 9 359
19 349 344 338 339 48 59 91 219 330 332 349 14 27 354 353 6 24 34 352 8 21 355 5 298 36 319 340 26 39 22 180 187 143 188 186 118 100 13 7 1 7 7 359 360
35 32 336 339 19 46 68 42 348 358 14 15 358 360 350 2 333 32 6 41 355 352 64 341 348 333 358 28 15 21 26 340 296 15 153 142 117 105 51 12 4 359 358 357 355
18 48 326 349 51 27 27 342 6 355 360 360 1 36 349 334 342 13 83 32 3 341 346 33 14 350 48 66 62 58 34 17 311 26 19 98 121 144 32 21 21 11 1 356 356
45 328 326 6 42 5 332 5 11 10 12 1 358 9 358 335 353 34 342 18 2 343 338 311 118 313 161 203 52 37 35 22 278 271 46 60 114 28 21 15 12 359 353 345 346
53 18 344 29 79 42 360 2 4 0 26 351 359 354 336 333 355 315 338 353 337 323 1 7 22 110 344 41 53 40 27 14 27 7 353 60 28 14 8 358 349 347 346 338 338
29 46 353 3 4 1 38 350 6 4 347 4 360 4 351 307 334 358 354 329 341 1 22 55 69 8 19 75 83 57 26 10 30 14 346 25 25 19 350 343 335 332 334 334 331
80 32 6 336 347 13 2 344 355 346 298 331 353 343 335 9 355 317 332 6 34 339 21 353 354 26 332 354 100 66 27 14 18 17 357 350 37 5 332 333 336 329 328 322 317
340 30 97 327 336 35 13 347 343 344 298 347 332 342 330 10 319 1 95 76 54 34 344 40 80 42 352 129 142 32 11 8 1 354 360 34 343 331 333 332 325 316 307 303 305